Regional Weather Roundup
Issued by NWS

Home | Current Version | Previous Version | Graphics & Text | Print | Product List | Glossary On
Versions: 1 2 3 4 5 6 7 8 9 10 11 12 13 14 15 16 17 18 19 20 21 22 23 24 25 26 27 28 29 30 31 32 33 34 35 36 37 38 39 40 41 42 43 44 45 46 47 48 49 50
000
ASUS45 KPSR 190510
RWRAZ

ARIZONA HOURLY REGIONAL WEATHER ROUNDUP
NATIONAL WEATHER SERVICE PHOENIX AZ
1000 PM MST SAT FEB 18 2017

NOTE: FAIR INDICATES FEW OR NO CLOUDS BELOW 12,000 FEET WITH NO
SIGNIFICANT WEATHER AND/OR OBSTRUCTIONS TO VISIBILITY.

AZZ001>003-036-190600-
NORTHWEST ARIZONA

CITY           SKY/WX    TMP DP  RH WIND       PRES   REMARKS
BULLHEAD CITY  MOCLDY    55  55 100 NW5       29.64R
KINGMAN        CLOUDY    47  44  90 SW7       29.66R
$$

AZZ004>008-015-016-018-190600-
NORTH CENTRAL ARIZONA

CITY           SKY/WX    TMP DP  RH WIND       PRES   REMARKS
GRAND CANYON   CLOUDY    39  36  89 CALM      29.72R
WILLIAMS       CLOUDY    36  34  93 S6        29.71R WCI  31
PRESCOTT       LGT RAIN  40  37  89 S7        29.71R
FLAGSTAFF      LGT SNOW  34  33  96 S9        29.72R FOG     WCI  27
PAYSON         MIX PCPN  41  39  93 S6        29.75R
PAGE           CLOUDY    46  39  76 CALM      29.68R
$$

AZZ009>014-017-190600-
NORTHEAST ARIZONA

CITY           SKY/WX    TMP DP  RH WIND       PRES   REMARKS
WINSLOW        CLOUDY    48  37  65 S18       29.69R
SAINT JOHNS    CLOUDY    48  31  51 S8        29.71R
WINDOW ROCK    PTCLDY    39  28  64 CALM      29.76R
SHOW LOW       LGT SNOW  34  32  93 S13       29.77R WCI  25
$$

AZZ023-190600-
GREATER PHOENIX AREA

CITY           SKY/WX    TMP DP  RH WIND       PRES   REMARKS
PHOENIX        LGT RAIN  51  48  89 SE7       29.72R
BUCKEYE          N/A     50  50 100 E7        29.72R
LUKE AFB       DRIZZLE   52  52 100 E8        29.72R
DEER VALLEY    LGT RAIN  50  50 100 SE6       29.73R
SCOTTSDALE     LGT RAIN  50  47  89 SE6       29.75R
MESA-GATEWAY   LGT RAIN  50  46  87 SE5       29.76R
$$

AZZ027-028-190600-
SOUTHWEST MARICOPA COUNTY AND PINAL COUNTY

CITY           SKY/WX    TMP DP  RH WIND       PRES   REMARKS
CASA GRANDE    NOT AVBL
GILA BEND      CLOUDY    53  50  87 SE9       29.71R
$$

AZZ503-504-507>509-190600-
SOUTHEAST ARIZONA

CITY           SKY/WX    TMP DP  RH WIND       PRES   REMARKS
TUCSON         MOCLDY    50  38  63 S14       29.78R
DAVIS-MONTHAN  MOCLDY    48  39  70 S7        29.78R
NOGALES        CLOUDY    42  36  79 SE17      29.78R
SIERRA VISTA   CLEAR     38  34  85 SE7       29.78R WCI  33
DOUGLAS        PTCLDY    39  36  89 S10       29.83R WCI  32
SAFFORD        CLOUDY    49  37  63 SE15      29.75S
$$

AZZ020-021-025-026-031-190600-
SOUTHWEST ARIZONA

CITY           SKY/WX    TMP DP  RH WIND       PRES   REMARKS
YUMA           CLOUDY    54  52  93 SW7       29.69R
$$

CAZ031-033-041-043-047-048-061-190600-
SOUTHERN CALIFORNIA

CITY           SKY/WX    TMP DP  RH WIND       PRES   REMARKS
DOWNTOWN L.A.  PTCLDY    56  52  86 CALM      29.69R
L.A. AIRPORT   PTCLDY    55  51  86 W7        29.69R
SAN DIEGO      CLOUDY    57  52  83 NW5       29.73R
BURBANK        CLEAR     52  48  86 NW3       29.69R
ONTARIO        CLOUDY    53  50  89 SW7       29.69R
RIVERSIDE      PTCLDY    53  51  93 W5        29.68R
PALM SPRINGS   CLOUDY    55  55 100 VRB7      29.68R FOG
EL CENTRO NAS  CLOUDY    55  52  89 S12       29.69R
IMPERIAL       CLOUDY    56  53  90 S9        29.66R
BLYTHE         LGT RAIN  54  54 100 S9        29.66R
NEEDLES        CLOUDY    57  54  89 E5        29.63S
$$

NVZ020-UTZ003-190600-
SOUTHERN NEVADA-UTAH

CITY           SKY/WX    TMP DP  RH WIND       PRES   REMARKS
LAS VEGAS      MOCLDY    51  49  92 E3        29.62R
SALT LAKE CITY CLOUDY    51  35  54 S14       29.60F
$$

NMZ009-TXZ055-190600-
NEW MEXICO-WEST TEXAS

CITY           SKY/WX    TMP DP  RH WIND       PRES   REMARKS
ALBUQUERQUE    PTCLDY    48  32  53 E3        29.79S
EL PASO        MOCLDY    51  32  48 W30G43    29.77R BLWGDUST
$$


........................KEY........................
SKY/WX - SKY CONDITION/WEATHER
TMP    - TEMPERATURE IN FAHRENHEIT
DP     - DEW POINT IN FAHRENHEIT
RH     - RELATIVE HUMIDITY IN PERCENT
WIND   - DIRECTION AND SPEED IN MILES PER HOUR (MPH)
VRB    - VARIABLE WIND DIRECTION
PRES   - MEAN SEA LEVEL PRESSURE IN INCHES OF MERCURY
         F - FALLING PRESSURE   R - RISING PRESSURE
         S - STEADY PRESSURE
VSB    - VISIBILITY IN MILES
HX     - HEAT INDEX IN FAHRENHEIT
WCI    - WIND CHILL INDEX IN FAHRENHEIT
TC     - TEMPERATURE IN CELSIUS WHICH IS ALSO KNOWN AS
         TEMPERATURE IN CENTIGRADE
AFB    - AIR FORCE BASE
         LUKE AFB IS LUKE AIR FORCE BASE
         DAVIS-MONTHAN IS DAVIS-MONTHAN AIR FORCE BASE
NAS    - NAVAL AIR STATION
         EL CENTRO NAS IS EL CENTRO NAVAL AIR STATION
N/A    - NOT AVAILABLE




USA.gov is the U.S. government's official web portal to all federal, state and local government web resources and services.